Weather in Vitoria da Conquista

Brazil     14°51′12″S   40°51′29″W
temp.,
°C
wind,
m/s
gust,
m/s
humid.,
%
clouds,
%
prec.,
mm/h
press.,
hPa
HPBL,
m
29 july, thu
thu2900:00+16ene11800 0.0 101711
03:00+15nne22884 0.0 101620
06:00+15n11895 0.0 101713
09:00+24nnw33450 0.0 1017559
12:00+29w34290 0.0 10152523
15:00+30wsw23256 0.0 10122796
18:00+24ese363684 0.0 1015212
21:00+18se6128842 0.0 1019507
30 july, fri
fri3000:00+17se6119267 0.1 1019578
03:00+16se51090100 0.1 1019738
06:00+15se41195100 0.1 1021675
09:00+15se41194100 0.2 1024732
12:00+15se51192100 0.0 1024552
15:00+16se51086100 0.1 1021658
18:00+14se51092100 0.0 1023603
21:00+14se51290100 0.0 1026538
31 july, sat
sat3100:00+13se5129197 0.0 1025525
03:00+13se51292100 0.0 1024518
06:00+13se51293100 0.0 1025647
09:00+14se6138890 0.0 1027612
12:00+18se687087 0.1 1026947
15:00+18se5867100 0.1 10241105
18:00+15se5118373 0.0 1025777
21:00+14se6128691 0.0 1027832
1 august, sun
sun100:00+12se6139272 0.0 1027776
03:00+13se61388100 0.0 1025756
06:00+13se61288100 0.1 1027826
09:00+14se5128395 0.1 1028812
12:00+15sse5108399 0.1 1027855
15:00+18se576184 0.2 10251203
18:00+16se496799 0.0 1026836
21:00+14se397338 0.0 1028569
2 august, mon
mon200:00+11se4119411 0.0 1028513
03:00+11se413943 0.0 1026474
06:00+12se5129275 0.0 1026604
09:00+16se5107551 0.0 1027742
12:00+19se456044 0.1 10261128
15:00+15sse588393 0.1 1024607
18:00+14se37843 0.0 1025222
21:00+12se29957 0.0 1026218